Current weather by "City, St" or "zip code"  
 
Advertise Here

Current Conditions: Greenwood Municipal Airport, IN

Fair


65.0 F

Last Updated on Jul 27 2021, 1:55 am EDT
Humidity: 95%
Wind Speed: N 0.0 mph
Barometer 30.06 in
Dewpoint: 64.0 F
Visibility: 10.00 mi
Precip: --
Heat Index: NA
Wind Chill: NA
Current conditions at:

Greenwood Municipal Airport, IN (KHFY)

Lat: 39.6276 Lon: 86.088

Local Radar Image active severe weather and emergency alerts image image weather storm and storm spotter reports image weather observation monitoring service image
Local
Radar
Active
Alerts
Storm Reports Obs
Monitoring

Sign-up For Email & Text Message Weather Alert Notification Services


Advertise Here

Observation History for Greenwood Municipal Airport, IN


Time Wind
(mph)
Vis
(mi)
Weather Precip (in) Temperature (F) Relative
Humidity
Wind
Chill
(F)
Heat
Index
(F)
Pressure
Air Dwpt altimeter
(in)
sea level
(mb)
Rmks
1:55 am EDT N 0.0 10.00 Fair -- 65.0 64.0 95% NA NA 30.06 M
12:55 am EDT N 0.0 10.00 Fair -- 67.0 64.8 94% NA NA 30.06 M
11:55 pm EDT NE 3.5 10.00 Fair -- 74.0 63.7 69% NA NA 30.05 M
10:55 pm EDT NE 3.5 10.00 Fair -- 74.0 64.6 73% NA NA 30.06 M
9:55 pm EDT N 0.0 10.00 Fair -- 76.0 66.2 72% NA NA 30.04 M
8:55 pm EDT NE 4.6 10.00 Partly Cloudy -- NULL % NA NA 30.01 M
7:55 pm EDT E 6.9 10.00 Fair -- 83.0 61.9 49% NA 84 30.01 M
6:55 pm EDT E 5.8 10.00 Fair -- NULL % NA NA 30.01 M
2:35 pm EDT SE 3.5 10.00 Fair -- 87.0 61.3 42% NA 87 30.04 M
1:55 pm EDT NE 6.9 10.00 Fair -- 87.0 61.7 43% NA 87 30.04 M
12:55 pm EDT E 4.6 10.00 Partly Cloudy -- 86.0 61.2 43% NA 86 30.04 M
11:55 am EDT E 4.6 10.00 Fair -- 84.0 65.3 53% NA 86 30.04 M
10:55 am EDT N 4.6 10.00 Fair -- NULL % NA NA 30.04 M
9:35 am EDT N 0.0 10.00 Fair -- 78.0 68.9 74% NA NA 30.04 M
8:55 am EDT N 0.0 10.00 Fair -- 76.0 69.3 81% NA NA 30.03 M
7:55 am EDT N 0.0 10.00 Partly Cloudy -- 71.0 70.0 95% NA NA 30.03 M
6:55 am EDT N 0.0 7.00 Fair -- 67.0 67.3 99% NA NA 30.01 M
5:55 am EDT N 0.0 10.00 Partly Cloudy -- 70.0 68.7 97% NA NA 30.00 M
4:55 am EDT N 0.0 10.00 Fair -- 70.0 69.3 98% NA NA 29.98 M
3:55 am EDT N 0.0 10.00 Partly Cloudy -- 71.0 69.1 95% NA NA 29.98 M
2:55 am EDT N 0.0 10.00 Partly Cloudy -- 70.0 69.6 99% NA NA 29.98 M

Regional Weather Observation


Indianapolis International Airport, IN (KIND)

Fair
74.0 F

Greenwood Municipal Airport, IN (KHFY)

Fair
65.0 F

Crawfordsville Municipal Airport, IN (KCFJ)

Fair
62.0 F

INDIANAPOLIS, IN (KTYQ)

Fair
62.0 F

Putnam County Regional Airport, IN (KGPC)

Fair
66.0 F

Indianapolis Mount Comfort Airport, IN (KMQJ)

Fair
66.0 F
Advertise Here

Advertise Here